Regional Weather Roundup
Issued by NWS

Home | Current Version | Previous Version | Graphics & Text | Print | Product List | Glossary On
Versions: 1 2 3 4 5 6 7 8 9 10 11 12 13 14 15 16 17 18 19 20 21 22 23 24 25 26 27 28 29 30 31 32 33 34 35 36 37 38 39 40 41 42 43 44 45 46 47 48 49 50
000
ASUS43 KDMX 250007
RWRIA

WEATHER ROUNDUP FOR IOWA
NATIONAL WEATHER SERVICE DES MOINES IA
700 PM CDT SUN MAY 24 2015

NOTE: "FAIR" INDICATES FEW OR NO CLOUDS BELOW 12,000 FEET WITH NO
SIGNIFICANT WEATHER AND/OR OBSTRUCTIONS TO VISIBILITY.

* - THESE STATIONS ARE NOT NWS STATIONS...THUS NOT UNDER NWS
QUALITY CONTROL.  THEY ALSO DO NOT REPORT WEATHER SUCH
AS PRECIPITATION OR FOG.

IAZ001>003-012>014-020>022-031>034-043>046-250100-
   NORTHWEST IOWA

CITY           SKY/WX    TMP DP  RH WIND       PRES   REMARKS
CARROLL *      PTSUNNY   66  64  94 SW7       29.78F
CHEROKEE *     DRIZZLE   63  62  98 W7        29.78F
DENISON *      CLOUDY    66  66 100 SW5       29.77S
LE MARS *      CLOUDY    64  61  88 CALM      29.79F
ORANGE CITY *  DRIZZLE   61  59  94 CALM      29.78F
SHELDON *      LGT RAIN  61  57  88 NE5       29.77F
SIOUX CITY     CLOUDY    63  61  93 NW3       29.78F FOG
6HR MIN TEMP:  63; 6HR MAX TEMP:  67; 6HR PCP:  0.01;

SPENCER        LGT RAIN  64  62  93 SE5       29.78F
6HR MIN TEMP:  61; 6HR MAX TEMP:  64; 6HR PCP:  0.01;

STORM LAKE *   CLOUDY    63  63 100 SW6       29.79F
$$

IAZ055>058-069>071-079>083-090>094-250100-
   SOUTHWEST IOWA

CITY           SKY/WX    TMP DP  RH WIND       PRES   REMARKS
ATLANTIC *     MOSUNNY   68  64  88 SW9       29.79F
AUDUBON *      MOSUNNY   66  63  88 SW3       29.80F
CLARINDA *     MOSUNNY   70  64  83 SW10      29.81F
COUNCIL BLFS * PTSUNNY   68  68 100 CALM      29.79F
CRESTON *      PTSUNNY   68  66  94 SW12      29.80F
HARLAN  *      MOSUNNY   68  68 100 SW7       29.82F
LAMONI         CLOUDY    70  64  81 S8        29.82S
6HR MIN TEMP:  70; 6HR MAX TEMP:  73; 6HR PCP:  0.01;

RED OAK *      MOSUNNY   70  64  83 SW13      29.79F
SHENANDOAH *   MOSUNNY   68  64  88 SW12      29.80F
$$

IAZ047>049-059>061-072>074-084-250100-
   CENTRAL IOWA

CITY           SKY/WX    TMP DP  RH WIND       PRES   REMARKS
AMES           CLOUDY    69  64  84 S6        29.79F
6HR MIN TEMP:  62; 6HR MAX TEMP:  70; 6HR PCP: TRACE;

ANKENY *       PTSUNNY   70  66  88 S5        29.79S
CHARITON *     PTSUNNY   68  64  88 SW7       29.81F
DES MOINES     LGT RAIN  71  63  75 S8        29.79F
6HR MIN TEMP:  65; 6HR MAX TEMP:  72; 6HR PCP: TRACE;

GRINNELL*      DRIZZLE   68  66  94 S7        29.81F
KNOXVILLE *    PTSUNNY   68  66  94 S9        29.80S
MARSHALLTOWN   CLOUDY    69  65  86 S7        29.80S
6HR MIN TEMP:  64; 6HR MAX TEMP:  70; 6HR PCP:  0.01;

PELLA *        CLOUDY    70  68  95 S3        29.82S
PERRY *        CLOUDY    68  64  86 SW8       29.79S
$$

IAZ004>006-015-016-023>025-035-036-250100-
   NORTH CENTRAL IOWA

CITY           SKY/WX    TMP DP  RH WIND       PRES   REMARKS
ALGONA *       CLOUDY    64  63  94 S10       29.79S FOG
CLARION *      CLOUDY    66  66 100 S9        29.79F
ESTHERVILLE    CLOUDY    61  61 100 SE5       29.78S FOG
6HR MIN TEMP:  59; 6HR MAX TEMP:  61; 6HR PCP:  0.09;

FORT DODGE *   CLOUDY    64  61  88 S6        29.79F
MASON CITY     CLOUDY    63  62  97 SE9       29.82F FOG
6HR MIN TEMP:  59; 6HR MAX TEMP:  63; 6HR PCP:  0.06;

FOREST CITY *  LGT RAIN  61  61 100 SE6       29.80F
IOWA FALLS *   CLOUDY    68  64  88 S7        29.81S
$$

IAZ007>011-017>019-026>030-037>042-050>054-066-250100-
   NORTHEAST IOWA

CITY           SKY/WX    TMP DP  RH WIND       PRES   REMARKS
CEDAR RAPIDS   LGT RAIN  69  68  96 S6        29.82F FOG
6HR MIN TEMP:  63; 6HR MAX TEMP:  72; 6HR PCP:  0.05;

CHARLES CITY * CLOUDY    64  64 100 SE9       29.83S FOG
CLINTON *      CLOUDY    72  66  83 SE5       29.87F
DECORAH *      CLOUDY    61  61 100 SE10G17   29.85F FOG
DUBUQUE        CLOUDY    63  62  97 E8        29.86F FOG
6HR MIN TEMP:  60; 6HR MAX TEMP:  64; 6HR PCP:  0.24;

MONTICELLO *   CLOUDY    66  66 100 E9        29.84F FOG
OELWEIN *      PTSUNNY   64  64 100 E14       29.84S FOG
WATERLOO       LGT RAIN  68  65  90 SE12      29.80F
6HR MIN TEMP:  60; 6HR MAX TEMP:  68; 6HR PCP: TRACE;

$$

IAZ064-065-067-068-078-250100-
   EAST CENTRAL IOWA

CITY           SKY/WX    TMP DP  RH WIND       PRES   REMARKS
DAVENPORT      CLOUDY    72  68  87 SE10      29.85F
6HR MIN TEMP:  65; 6HR MAX TEMP:  75; 6HR PCP:  0.43;

IOWA CITY      LGT RAIN  69  66  90 S9        29.85S FOG
6HR MIN TEMP:  64; 6HR MAX TEMP:  74; 6HR PCP:  0.17;

MT. PLEASANT * LGT RAIN  69  68  98 SE5       29.84S
MUSCATINE *    LGT RAIN  70  68  94 SW7G17    29.85R VSB 1/2
QUAD CITIES    PTSUNNY   72  67  84 S8        29.83F
6HR MIN TEMP:  68; 6HR MAX TEMP:  77; 6HR PCP:  0.19;

$$

IAZ062-063-075>077-085>089-095>099-250100-
   SOUTHEAST IOWA

CITY           SKY/WX    TMP DP  RH WIND       PRES   REMARKS
BURLINGTON     LGT RAIN  71  68  90 SW14      29.86R
6HR MIN TEMP:  71; 6HR MAX TEMP:  79; 6HR PCP:  0.14;

FAIRFIELD *    MOSUNNY   70  66  88 SE6       29.82F
FORT MADISON * LGT RAIN  68  66  94 S8        29.85F
KEOKUK *       CLOUDY    70  68  94 S7        29.84F
OSKALOOSA *    CLOUDY    69  65  86 SE10      29.81F
CENTERVILLE *  CLOUDY    66  66 100 S3        29.84F
OTTUMWA        CLOUDY    69  66  90 S8        29.81S
6HR MIN TEMP:  67; 6HR MAX TEMP:  72; 6HR PCP:  0.03;

WASHINGTON *   CLOUDY    70  66  88 SE3       29.84F
$$

ABBREVIATIONS USED IN REMARKS
   TC - TEMPERATURES IN CELSIUS
  WCI - WIND CHILL INDEX
   HX - HEAT INDEX
  VSB - VISIBILITY
$$



USA.gov is the U.S. government's official web portal to all federal, state and local government web resources and services.